| time (UTC) | temp F | wind direction | speed MPH | gust MPH | rain 1hr in | rain 24hr in | rain mn in | humidity % | barometer mb |
| 20260506133922 | 66 | 162 | 2.0 | 6.0 | 0.00 | 0.00 | 0.00 | 72 | 1008.9 |
| 20260506132850 | 65 | 63 | 3.0 | 7.0 | 0.00 | 0.00 | 0.00 | 73 | 1008.9 |
| 20260506131818 | 65 | 299 | 1.0 | 7.0 | 0.00 | 0.00 | 0.00 | 73 | 1008.9 |
| 20260506130818 | 66 | 5 | 3.0 | 9.0 | 0.00 | 0.00 | 0.00 | 73 | 1009.2 |
| 20260506125746 | 65 | 59 | 3.0 | 7.0 | 0.00 | 0.00 | 0.00 | 73 | 1009.2 |
| 20260506124746 | 65 | 268 | 3.0 | 8.0 | 0.00 | 0.00 | 0.00 | 73 | 1008.9 |
| 20260506123745 | 64 | 274 | 3.0 | 10.0 | 0.00 | 0.00 | 0.00 | 74 | 1008.9 |
| 20260506122744 | 64 | 307 | 2.0 | 4.0 | 0.00 | 0.00 | 0.00 | 74 | 1008.9 |
| 20260506121744 | 63 | 31 | 2.0 | 8.0 | 0.00 | 0.00 | 0.00 | 74 | 1008.5 |
| 20260506120712 | 62 | 55 | 2.0 | 5.0 | 0.00 | 0.00 | 0.00 | 75 | 1008.9 |
| 20260506115712 | 62 | 335 | 3.0 | 6.0 | 0.00 | 0.00 | 0.00 | 76 | 1008.9 |
| 20260506114711 | 62 | 30 | 2.0 | 4.0 | 0.00 | 0.00 | 0.00 | 76 | 1008.9 |
| 20260506113711 | 62 | 24 | 2.0 | 5.0 | 0.00 | 0.00 | 0.00 | 76 | 1008.9 |
| 20260506112710 | 61 | 86 | 3.0 | 9.0 | 0.00 | 0.00 | 0.00 | 77 | 1008.5 |
| 20260506111710 | 61 | 107 | 3.0 | 8.0 | 0.00 | 0.00 | 0.00 | 76 | 1008.5 |
| 20260506110638 | 61 | 59 | 3.0 | 6.0 | 0.00 | 0.00 | 0.00 | 77 | 1008.5 |
| 20260506105637 | 61 | 0 | 2.0 | 6.0 | 0.00 | 0.00 | 0.00 | 78 | 1008.9 |
| 20260506104606 | 60 | 16 | 3.0 | 7.0 | 0.00 | 0.00 | 0.00 | 78 | 1008.5 |
| 20260506103605 | 60 | 49 | 4.0 | 7.0 | 0.00 | 0.00 | 0.00 | 78 | 1008.6 |
| 20260506102605 | 60 | 28 | 1.0 | 4.0 | 0.00 | 0.00 | 0.00 | 79 | 1008.6 |
| 20260506101604 | 60 | 38 | 2.0 | 4.0 | 0.00 | 0.00 | 0.00 | 79 | 1008.6 |
| 20260506100604 | 60 | 350 | 3.0 | 7.0 | 0.00 | 0.00 | 0.00 | 79 | 1008.6 |
| 20260506095603 | 60 | 18 | 1.0 | 8.0 | 0.00 | 0.00 | 0.00 | 79 | 1008.9 |
| 20260506094602 | 60 | 63 | 1.0 | 4.0 | 0.00 | 0.00 | 0.00 | 78 | 1008.6 |
| 20260506093602 | 60 | 98 | 2.0 | 6.0 | 0.00 | 0.00 | 0.00 | 78 | 1008.6 |
| 20260506092530 | 61 | 179 | 2.0 | 3.0 | 0.00 | 0.00 | 0.00 | 78 | 1008.6 |
| 20260506091529 | 61 | 181 | 2.0 | 8.0 | 0.00 | 0.00 | 0.00 | 78 | 1008.6 |
| 20260506090529 | 61 | 119 | 2.0 | 4.0 | 0.00 | 0.00 | 0.00 | 77 | 1008.6 |
| 20260506085528 | 61 | 61 | 3.0 | 6.0 | 0.00 | 0.00 | 0.00 | 78 | 1008.6 |
| 20260506084528 | 61 | 54 | 3.0 | 5.0 | 0.00 | 0.00 | 0.00 | 78 | 1008.6 |
| 20260506083527 | 61 | 342 | 1.0 | 6.0 | 0.00 | 0.00 | 0.00 | 78 | 1009.0 |
| 20260506082526 | 60 | 103 | 1.0 | 4.0 | 0.00 | 0.00 | 0.00 | 79 | 1009.0 |
| 20260506081525 | 61 | 83 | 1.0 | 6.0 | 0.00 | 0.00 | 0.00 | 78 | 1009.0 |
| 20260506080525 | 61 | 359 | 2.0 | 3.0 | 0.00 | 0.00 | 0.00 | 78 | 1009.0 |
| 20260506073523 | 61 | 27 | 3.0 | 5.0 | 0.00 | 0.00 | 0.00 | 78 | 1009.0 |
| 20260506072451 | 61 | 74 | 1.0 | 6.0 | 0.00 | 0.00 | 0.00 | 77 | 1009.3 |
| 20260506071451 | 62 | 355 | 1.0 | 4.0 | 0.00 | 0.00 | 0.00 | 77 | 1009.3 |
| 20260506070451 | 62 | 204 | 1.0 | 4.0 | 0.00 | 0.00 | 0.00 | 77 | 1009.3 |
| 20260506062448 | 63 | 56 | 0.0 | 3.0 | 0.00 | 0.00 | 0.00 | 75 | 1009.7 |
| 20260506061447 | 63 | 25 | 2.0 | 3.0 | 0.00 | 0.00 | 0.00 | 75 | 1009.7 |
| 20260506060447 | 63 | 287 | 1.0 | 3.0 | 0.00 | 0.00 | 0.00 | 75 | 1009.7 |
| 20260506051412 | 65 | 204 | 1.0 | 4.0 | 0.00 | 0.00 | 0.00 | 73 | 1010.0 |
| 20260506050412 | 66 | 313 | 1.0 | 4.0 | 0.00 | 0.00 | 0.00 | 72 | 1010.0 |
| 20260506044339 | 66 | 173 | 2.0 | 8.0 | 0.00 | 0.00 | 0.00 | 71 | 1010.0 |
| 20260506043338 | 67 | 46 | 2.0 | 8.0 | 0.00 | 0.00 | 0.00 | 71 | 1010.0 |
| 20260506042338 | 67 | 85 | 1.0 | 6.0 | 0.00 | 0.00 | 0.00 | 70 | 1010.0 |
| 20260506041337 | 67 | 281 | 2.0 | 6.0 | 0.00 | 0.00 | 0.00 | 69 | 1010.0 |
| 20260506040305 | 68 | 97 | 2.0 | 7.0 | 0.00 | 0.00 | 0.00 | 68 | 1010.0 |
| 20260506035306 | 68 | 41 | 2.0 | 7.0 | 0.00 | 0.00 | 0.00 | 68 | 1009.7 |
| 20260506034304 | 68 | 70 | 2.0 | 6.0 | 0.00 | 0.00 | 0.00 | 67 | 1010.0 |
| 20260506033304 | 68 | 15 | 1.0 | 4.0 | 0.00 | 0.00 | 0.00 | 67 | 1009.7 |
| 20260506032305 | 68 | 36 | 3.0 | 6.0 | 0.00 | 0.00 | 0.00 | 67 | 1010.0 |
| 20260506031303 | 68 | 35 | 2.0 | 5.0 | 0.00 | 0.00 | 0.00 | 66 | 1010.0 |
| 20260506030302 | 68 | 32 | 1.0 | 5.0 | 0.00 | 0.00 | 0.00 | 65 | 1010.0 |
| 20260506025230 | 68 | 182 | 2.0 | 8.0 | 0.00 | 0.00 | 0.00 | 64 | 1010.0 |
| 20260506024159 | 69 | 47 | 1.0 | 5.0 | 0.00 | 0.00 | 0.00 | 64 | 1010.0 |
| 20260506023158 | 69 | 283 | 2.0 | 5.0 | 0.00 | 0.00 | 0.00 | 63 | 1010.0 |
| 20260506022158 | 69 | 352 | 2.0 | 5.0 | 0.00 | 0.00 | 0.00 | 62 | 1010.0 |
| 20260506021157 | 69 | 65 | 1.0 | 6.0 | 0.00 | 0.00 | 0.00 | 62 | 1010.0 |
| 20260506020156 | 70 | 25 | 2.0 | 5.0 | 0.00 | 0.00 | 0.00 | 61 | 1009.9 |
| 20260506015156 | 70 | 125 | 3.0 | 7.0 | 0.00 | 0.00 | 0.00 | 59 | 1009.9 |
| 20260506014155 | 71 | 46 | 2.0 | 4.0 | 0.00 | 0.00 | 0.00 | 57 | 1009.9 |
| 20260506013154 | 71 | 268 | 2.0 | 5.0 | 0.00 | 0.00 | 0.00 | 55 | 1009.6 |
| 20260506012154 | 71 | 36 | 3.0 | 7.0 | 0.00 | 0.00 | 0.00 | 53 | 1009.6 |
| 20260506011153 | 72 | 301 | 4.0 | 5.0 | 0.00 | 0.00 | 0.00 | 52 | 1009.5 |
| 20260506010153 | 72 | 343 | 3.0 | 7.0 | 0.00 | 0.00 | 0.00 | 50 | 1009.5 |
| 20260506005152 | 73 | 4 | 2.0 | 4.0 | 0.00 | 0.00 | 0.00 | 49 | 1009.2 |
| 20260506004152 | 73 | 73 | 2.0 | 5.0 | 0.00 | 0.00 | 0.00 | 49 | 1009.2 |
| 20260506003151 | 74 | 67 | 2.0 | 6.0 | 0.00 | 0.00 | 0.00 | 46 | 1008.8 |
| 20260506002150 | 74 | 82 | 2.0 | 6.0 | 0.00 | 0.00 | 0.00 | 45 | 1008.8 |
| 20260506001119 | 75 | 270 | 3.0 | 9.0 | 0.00 | 0.00 | 0.00 | 46 | 1008.5 |
| 20260506000118 | 75 | 314 | 2.0 | 6.0 | 0.00 | 0.00 | 0.00 | 46 | 1008.5 |
| 20260505235117 | 74 | 323 | 2.0 | 6.0 | 0.00 | 0.00 | 0.00 | 46 | 1008.4 |
| 20260505234117 | 75 | 339 | 1.0 | 7.0 | 0.00 | 0.00 | 0.00 | 47 | 1008.4 |
| 20260505233116 | 76 | 21 | 2.0 | 3.0 | 0.00 | 0.00 | 0.00 | 46 | 1008.4 |
| 20260505232115 | 76 | 351 | 2.0 | 5.0 | 0.00 | 0.00 | 0.00 | 45 | 1008.4 |
| 20260505231115 | 77 | 57 | 1.0 | 5.0 | 0.00 | 0.00 | 0.00 | 45 | 1008.1 |
| 20260505230043 | 77 | 20 | 2.0 | 6.0 | 0.00 | 0.00 | 0.00 | 43 | 1008.5 |
| 20260505225042 | 78 | 314 | 2.0 | 12.0 | 0.00 | 0.00 | 0.00 | 42 | 1008.1 |
| 20260505224011 | 80 | 72 | 2.0 | 6.0 | 0.00 | 0.00 | 0.00 | 40 | 1008.2 |
| 20260505223010 | 81 | 256 | 2.0 | 9.0 | 0.00 | 0.00 | 0.00 | 38 | 1008.2 |
| 20260505222009 | 81 | 30 | 2.0 | 11.0 | 0.00 | 0.00 | 0.00 | 37 | 1008.2 |
| 20260505220938 | 81 | 294 | 3.0 | 9.0 | 0.00 | 0.00 | 0.00 | 36 | 1008.2 |
| 20260505215937 | 81 | 353 | 2.0 | 12.0 | 0.00 | 0.00 | 0.00 | 36 | 1008.2 |
| 20260505214937 | 82 | 253 | 4.0 | 10.0 | 0.00 | 0.00 | 0.00 | 34 | 1008.2 |
| 20260505213936 | 82 | 96 | 2.0 | 9.0 | 0.00 | 0.00 | 0.00 | 33 | 1007.8 |
| 20260505212834 | 82 | 284 | 3.0 | 10.0 | 0.00 | 0.00 | 0.00 | 34 | 1008.2 |
| 20260505211833 | 83 | 296 | 5.0 | 7.0 | 0.00 | 0.00 | 0.00 | 33 | 1008.2 |
| 20260505210832 | 82 | 113 | 2.0 | 10.0 | 0.00 | 0.00 | 0.00 | 33 | 1008.2 |
| 20260505205659 | 83 | 318 | 4.0 | 11.0 | 0.00 | 0.00 | 0.00 | 31 | 1007.9 |
| 20260505204659 | 84 | 293 | 3.0 | 7.0 | 0.00 | 0.00 | 0.00 | 29 | 1007.9 |
| 20260505203658 | 84 | 5 | 2.0 | 9.0 | 0.00 | 0.00 | 0.00 | 30 | 1007.9 |
| 20260505202658 | 84 | 338 | 3.0 | 8.0 | 0.00 | 0.00 | 0.00 | 30 | 1007.9 |
| 20260505201657 | 84 | 317 | 2.0 | 8.0 | 0.00 | 0.00 | 0.00 | 31 | 1007.9 |
| 20260505200626 | 84 | 220 | 5.0 | 16.0 | 0.00 | 0.00 | 0.00 | 30 | 1007.9 |
| 20260505195625 | 84 | 257 | 4.0 | 10.0 | 0.00 | 0.00 | 0.00 | 30 | 1007.9 |
| 20260505194624 | 84 | 65 | 3.0 | 8.0 | 0.00 | 0.00 | 0.00 | 31 | 1008.2 |
| 20260505193623 | 84 | 253 | 4.0 | 12.0 | 0.00 | 0.00 | 0.00 | 32 | 1008.2 |
| 20260505192623 | 84 | 309 | 2.0 | 10.0 | 0.00 | 0.00 | 0.00 | 32 | 1008.2 |
| 20260505191622 | 84 | 272 | 4.0 | 11.0 | 0.00 | 0.00 | 0.00 | 33 | 1008.2 |
| 20260505190621 | 84 | 262 | 3.0 | 15.0 | 0.00 | 0.00 | 0.00 | 36 | 1008.9 |
| 20260505185550 | 84 | 284 | 3.0 | 7.0 | 0.00 | 0.00 | 0.00 | 36 | 1008.6 |
| 20260505184549 | 83 | 4 | 2.0 | 11.0 | 0.00 | 0.00 | 0.00 | 38 | 1008.9 |
| 20260505183549 | 83 | 342 | 3.0 | 7.0 | 0.00 | 0.00 | 0.00 | 37 | 1008.9 |
| 20260505182517 | 83 | 9 | 2.0 | 7.0 | 0.00 | 0.00 | 0.00 | 38 | 1009.3 |
| 20260505181517 | 83 | 345 | 3.0 | 6.0 | 0.00 | 0.00 | 0.00 | 39 | 1009.3 |
| 20260505180516 | 83 | 90 | 2.0 | 6.0 | 0.00 | 0.00 | 0.00 | 41 | 1009.6 |
| 20260505175445 | 83 | 18 | 3.0 | 7.0 | 0.00 | 0.00 | 0.00 | 41 | 1009.6 |
| 20260505174444 | 82 | 285 | 2.0 | 7.0 | 0.00 | 0.00 | 0.00 | 41 | 1009.6 |
| 20260505173443 | 82 | 310 | 4.0 | 10.0 | 0.00 | 0.00 | 0.00 | 41 | 1009.6 |
| 20260505172443 | 81 | 336 | 3.0 | 7.0 | 0.00 | 0.00 | 0.00 | 41 | 1009.6 |
| 20260505171442 | 81 | 311 | 3.0 | 11.0 | 0.00 | 0.00 | 0.00 | 42 | 1009.9 |
| 20260505170442 | 82 | 288 | 2.0 | 7.0 | 0.00 | 0.00 | 0.00 | 41 | 1009.9 |
| 20260505165441 | 81 | 48 | 2.0 | 7.0 | 0.00 | 0.00 | 0.00 | 42 | 1009.9 |
| 20260505164440 | 80 | 291 | 2.0 | 5.0 | 0.00 | 0.00 | 0.00 | 43 | 1009.9 |
| 20260505163440 | 80 | 39 | 2.0 | 5.0 | 0.00 | 0.00 | 0.00 | 43 | 1009.9 |
| 20260505162408 | 79 | 4 | 2.0 | 7.0 | 0.00 | 0.00 | 0.00 | 44 | 1010.2 |
| 20260505161408 | 78 | 250 | 2.0 | 6.0 | 0.00 | 0.00 | 0.00 | 46 | 1010.2 |
| 20260505160407 | 78 | 57 | 2.0 | 5.0 | 0.00 | 0.00 | 0.00 | 47 | 1010.2 |
| 20260505152405 | 78 | 249 | 2.0 | 4.0 | 0.00 | 0.00 | 0.00 | 46 | 1010.6 |
| 20260505151404 | 78 | 343 | 2.0 | 3.0 | 0.00 | 0.00 | 0.00 | 46 | 1010.6 |
| 20260505150403 | 78 | 32 | 1.0 | 3.0 | 0.00 | 0.00 | 0.00 | 45 | 1010.6 |
| 20260505140328 | 73 | 200 | 1.0 | 4.0 | 0.00 | 0.00 | 0.00 | 50 | 1010.8 |